Location: St. Louis
(38.6270°N, 90.1994°W)
Time: 13:06:47
(UTC-06:00)

Transit 4A - Pass Details

Date: 01 December 2021
Orbit: 864 x 980 km, 66.8° (Epoch: 16 January)

Event Time Altitude Azimuth Distance (km) Brightness Sun altitude
Rises 18:44:53 0° 183° (S) 3,433 11.0 -23.9°
Reaches altitude 10° 18:47:29 10° 175° (S) 2,507 10.2 -24.4°
Enters shadow 18:50:41 28° 150° (SSE) 1,573 8.9 -25.0°
Maximum altitude 18:52:45 37° 110° (ESE) 1,335 - -25.4°
Drops below altitude 10° 18:58:09 10° 44° (NE) 2,576 - -26.4°
Sets 19:00:51 0° 37° (NE) 3,539 - -27.0°
